TimeEDT,TemperatureF,Dew PointF,Humidity,Sea Level PressureIn,VisibilityMPH,Wind Direction,Wind SpeedMPH,Gust SpeedMPH,PrecipitationIn,Events,Conditions,WindDirDegrees,DateUTC
12:54 AM,24.1,19.9,84,30.37,10.0,Calm,Calm,-,N/A,,Clear,0,2013-03-10 05:54:00
1:54 AM,23.0,19.0,85,30.36,10.0,Calm,Calm,-,N/A,,Clear,0,2013-03-10 06:54:00
3:54 AM,21.9,19.0,89,30.33,10.0,Calm,Calm,-,N/A,,Clear,0,2013-03-10 07:54:00
4:54 AM,21.9,19.9,92,30.33,8.0,Calm,Calm,-,N/A,,Clear,0,2013-03-10 08:54:00
5:54 AM,21.9,19.0,89,30.34,10.0,Calm,Calm,-,N/A,,Clear,0,2013-03-10 09:54:00
6:54 AM,23.0,19.0,85,30.35,10.0,Calm,Calm,-,N/A,,Clear,0,2013-03-10 10:54:00
8:54 AM,30.0,23.0,75,30.35,10.0,South,3.5,-,N/A,,Clear,180,2013-03-10 12:54:00
9:54 AM,37.9,24.1,57,30.34,10.0,Calm,Calm,-,N/A,,Clear,0,2013-03-10 13:54:00
10:54 AM,41.0,23.0,49,30.32,10.0,South,4.6,-,N/A,,Clear,190,2013-03-10 14:54:00
11:54 AM,44.1,24.1,45,30.29,10.0,South,3.5,-,N/A,,Clear,180,2013-03-10 15:54:00
12:54 PM,48.9,21.0,33,30.27,10.0,Calm,Calm,-,N/A,,Clear,0,2013-03-10 16:54:00
1:54 PM,51.1,21.9,32,30.25,10.0,South,5.8,-,N/A,,Clear,190,2013-03-10 17:54:00
2:54 PM,53.1,21.9,30,30.22,10.0,South,5.8,-,N/A,,Clear,180,2013-03-10 18:54:00
3:54 PM,51.1,21.9,32,30.20,10.0,South,4.6,-,N/A,,Partly Cloudy,180,2013-03-10 19:54:00
4:54 PM,50.0,23.0,35,30.17,10.0,South,5.8,-,N/A,,Clear,170,2013-03-10 20:54:00
5:54 PM,50.0,23.0,35,30.17,10.0,South,6.9,-,N/A,,Mostly Cloudy,170,2013-03-10 21:54:00
6:54 PM,46.9,23.0,39,30.17,10.0,South,3.5,-,N/A,,Overcast,170,2013-03-10 22:54:00
8:54 PM,45.0,23.0,42,30.17,10.0,Calm,Calm,-,N/A,,Clear,0,2013-03-11 00:54:00
10:54 PM,39.9,25.0,55,30.18,10.0,SSE,3.5,-,N/A,,Mostly Cloudy,160,2013-03-11 02:54:00
11:54 PM,44.1,25.0,47,30.18,10.0,SSW,8.1,-,N/A,,Overcast,200,2013-03-11 03:54:00